Regional Weather Roundup
Issued by NWS

Home | Current Version | Previous Version | Text Only | Print | Product List | Glossary Off
Versions: 1 2 3 4 5 6 7 8 9 10 11 12 13 14 15 16 17 18 19 20 21 22 23 24 25 26 27 28 29 30 31 32 33 34 35 36 37 38 39 40 41 42 43 44 45 46 47 48 49 50

284
ASUS43 KDTX 261810
RWRMI
MICHIGAN HOURLY REGIONAL WEATHER ROUNDUP
NATIONAL WEATHER SERVICE DETROIT/PONTIAC MI
200 PM EDT THU MAY 26 2016

NOTE: "FAIR" INDICATES FEW OR NO CLOUDS BELOW 12,000 FEET WITH NO
SIGNIFICANT WEATHER AND/OR OBSTRUCTION TO VISIBILITY.

MIZ047>049-052>055-059>063-066>070-074>076-081>083-261900-
SOUTHEAST LOWER MICHIGAN

CITY           SKY/WX    TMP DP  RH WIND       PRES   REMARKS
ADRIAN         PTSUNNY   82  63  52 W14G23    29.97F
6HR MIN TEMP:  68; 6HR MAX TEMP:  82;

ALMA           PTSUNNY   79  70  73 S12G17    29.90F
ANN ARBOR      MOSUNNY   81  64  56 SW15      29.95F
BAD AXE        CLOUDY    79  65  62 W9        29.92F
CARO           CLOUDY    80  67  65 W8        29.91F
DETROIT CITY   MOSUNNY   84  66  54 SW14      29.94F
6HR MIN TEMP:  69; 6HR MAX TEMP:  84;

DETROIT        PTSUNNY   84  63  49 S16       29.96F
6HR MIN TEMP:  69; 6HR MAX TEMP:  84;

FLINT          PTSUNNY   85  64  49 SW13      29.93F
6HR MIN TEMP:  70; 6HR MAX TEMP:  85;

GROSSE ILE     MOSUNNY   77  66  69 S10       29.96F
HILLSDALE      CLOUDY    80  58  46 W8G16     29.97F
6HR MIN TEMP:  66; 6HR MAX TEMP:  80;

HOWELL         PTSUNNY   81  63  54 SW14      29.95F
6HR MIN TEMP:  66; 6HR MAX TEMP:  82;


CITY           SKY/WX    TMP DP  RH WIND       PRES   REMARKS
JACKSON        MOSUNNY   80  62  54 SW13      29.95F
6HR MIN TEMP:  67; 6HR MAX TEMP:  81;

LAMBERTVILLE   PTSUNNY   83  63  51 SW12G21   29.98F
6HR MIN TEMP:  71; 6HR MAX TEMP:  83;

LANSING        MOSUNNY   80  66  62 S14       29.93F
6HR MIN TEMP:  66; 6HR MAX TEMP:  81;

LAPEER         FAIR      84  59  43 SW13      29.94F
6HR MIN TEMP:  68; 6HR MAX TEMP:  84;

MASON          PTSUNNY   80  63  55 SW9       29.94F
MONROE         PTSUNNY   83  66  57 SW12G18   29.95F
6HR MIN TEMP:  69; 6HR MAX TEMP:  83;

MT. CLEMENS    PTSUNNY   80  67  64 S14       29.93F
6HR MIN TEMP:  67; 6HR MAX TEMP:  81;

PONTIAC        PTSUNNY   82  63  52 SW12      29.94F
6HR MIN TEMP:  68; 6HR MAX TEMP:  83;

PORT HOPE        N/A     67  62  84 E6        29.91S
6HR MIN TEMP:  64; 6HR MAX TEMP:  80;

PORT HURON     SUNNY     81  66  61 S14       29.95F
TRI CITIES     PTSUNNY   82  68  62 S10       29.91F
6HR MIN TEMP:  68; 6HR MAX TEMP:  82;

MIDLAND        PTSUNNY   81  68  65 S9        29.89F
6HR MIN TEMP:  64; 6HR MAX TEMP:  81;

TROY           PTSUNNY   85  62  47 SW14      29.96F
SAGINAW HB     PTSUNNY   79  64  61 SW12      29.92F
$$
MIZ043>046-050>051-056>058-064>065-071>073-077>080-261900-
SOUTHWEST LOWER MICHIGAN

CITY           SKY/WX    TMP DP  RH WIND       PRES   REMARKS
BATTLE CREEK   PTSUNNY   79  67  66 S14       29.95F
6HR MIN TEMP:  66; 6HR MAX TEMP:  80;

BENTON HARBOR  CLOUDY    80  67  64 S13       29.91F
6HR MIN TEMP:  69; 6HR MAX TEMP:  80;

BIG RAPIDS     CLOUDY    78  71  78 SW8       29.89R
6HR MIN TEMP:  65; 6HR MAX TEMP:  78;

COLDWATER      CLOUDY    80  64  58 W13G20    29.96F
6HR MIN TEMP:  69; 6HR MAX TEMP:  81;

FREMONT        PTSUNNY   77  70  78 SW16G22   29.90S
HOLLAND        MOSUNNY   78  67  68 SW22G28   29.93S
6HR MIN TEMP:  68; 6HR MAX TEMP:  79;

GRAND RAPIDS   PTSUNNY   82  66  58 S16G24    29.91F
6HR MIN TEMP:  69; 6HR MAX TEMP:  83;

IONIA          FAIR      81  65  59 S16       29.90F
6HR MIN TEMP:  66; 6HR MAX TEMP:  81;

KALAMAZOO      CLOUDY    81  66  60 SW16G24   29.94F
6HR MIN TEMP:  68; 6HR MAX TEMP:  81;

LUDINGTON      CLOUDY    74  66  75 S15       29.86S
6HR MIN TEMP:  65; 6HR MAX TEMP:  76;

MARSHALL       CLOUDY    80  65  58 SW12G18   29.94F
6HR MIN TEMP:  67; 6HR MAX TEMP:  81;

MOUNT PLEASANT PTSUNNY   79  68  67 S8        29.88F
6HR MIN TEMP:  65; 6HR MAX TEMP:  80;

MUSKEGON       CLOUDY    75  65  70 S17G24    29.91S
6HR MIN TEMP:  69; 6HR MAX TEMP:  77;

SOUTH HAVEN    HVY RAIN  76  68  76 SW8       29.92F
$$
MIZ016>042-261900-
NORTHERN LOWER MICHIGAN

CITY           SKY/WX    TMP DP  RH WIND       PRES   REMARKS
ALPENA         PTSUNNY   81  63  54 SW10G17   29.87F
6HR MIN TEMP:  58; 6HR MAX TEMP:  82;

BEAVER ISLAND  CLOUDY    71  62  75 SW7       29.84F
6HR MIN TEMP:  57; 6HR MAX TEMP:  71;

BELLAIRE       MOSUNNY   81  62  53 S8        29.82F
6HR MIN TEMP:  64; 6HR MAX TEMP:  81;

CADILLAC       CLOUDY    78  66  67 SW9G16    29.88S
CHARLEVOIX     CLOUDY    77  65  66 SW9       29.87F
6HR MIN TEMP:  64; 6HR MAX TEMP:  77;

FRANKFORT      CLOUDY    77  67  72 S12G17    29.83F
GAYLORD        PTSUNNY   79  63  57 S12G21    29.88F
6HR MIN TEMP:  62; 6HR MAX TEMP:  79;

GRAYLING       PTSUNNY   79  65  62 S8        29.88F
6HR MIN TEMP:  65; 6HR MAX TEMP:  80;

HARBOR SPRINGS CLOUDY    61  57  88 SW3       29.86S
HOUGHTON LAKE  MOSUNNY   78  65  63 SW8       29.88F
6HR MIN TEMP:  64; 6HR MAX TEMP:  78;

MANISTEE       CLOUDY    77  64  65 S9        29.85S
OSCODA         MOSUNNY   82  64  53 SW12G26   29.89F
6HR MIN TEMP:  59; 6HR MAX TEMP:  82;

PELLSTON       MOSUNNY   78  65  63 SW10      29.85F
6HR MIN TEMP:  59; 6HR MAX TEMP:  78;

ROGERS CITY    CLOUDY    79  63  57 CALM      29.85F
TRAVERSE CITY  CLOUDY    81  64  56 S9        29.81F
6HR MIN TEMP:  68; 6HR MAX TEMP:  82;

$$
MIZ007>008-015-261900-
EASTERN UPPER MICHIGAN

CITY           SKY/WX    TMP DP  RH WIND       PRES   REMARKS
KINROSS          N/A     64  63  94 S8        29.86S
6HR MIN TEMP:  57; 6HR MAX TEMP:  64;

MACKINAC ISLAN CLOUDY    62  59  90 CALM      29.85F FOG
6HR MIN TEMP:  50; 6HR MAX TEMP:  62;

NEWBERRY       CLOUDY    62  60  95 S9        29.84R
6HR MIN TEMP:  56; 6HR MAX TEMP:  62;

S. S. MARIE    CLOUDY    64  58  80 SE7       29.84F
6HR MIN TEMP:  57; 6HR MAX TEMP:  64;

MUNISING         N/A     69  59  70 NE6       29.78S
6HR MIN TEMP:  61; 6HR MAX TEMP:  74;

$$
MIZ004>006-011>014-085-261900-
CENTRAL UPPER MICHIGAN

CITY           SKY/WX    TMP DP  RH WIND       PRES   REMARKS
MANISTIQUE     FOG       54  53  95 SE3       29.83F VSB 1/2
6HR MIN TEMP:  53; 6HR MAX TEMP:  59;

ESCANABA       CLOUDY    64  61  88 S8        29.79F
6HR MIN TEMP:  57; 6HR MAX TEMP:  66;

MENOMINEE      CLOUDY    64  63  94 VRB3      29.80S FOG
6HR MIN TEMP:  57; 6HR MAX TEMP:  64;

SAWYER-GWINN   MOSUNNY   68  61  77 CALM      29.80F
$$
MIZ001>003-009>011-084-261900-
WESTERN UPPER MICHIGAN

CITY           SKY/WX    TMP DP  RH WIND       PRES   REMARKS
IRON MOUNTAIN  LGT RAIN  66  63  90 S7        29.79F
6HR MIN TEMP:  65; 6HR MAX TEMP:  70; 6HR PCP: TRACE;

HOUGHTON       CLOUDY    60  55  83 W10       29.83R
6HR MIN TEMP:  53; 6HR MAX TEMP:  63;

COPPER HARBOR    N/A     44  44 100 N3        29.81R
6HR MIN TEMP:  44; 6HR MAX TEMP:  49;

IRONWOOD       CLOUDY    57  55  94 N7        29.81R
6HR MIN TEMP:  55; 6HR MAX TEMP:  64; 6HR PCP:  0.46;

$$

ABBREVIATIONS USED IN REMARKS
   TC - TEMPERATURE IN CELSIUS
  WCI - WIND CHILL INDEX
   HX - HEAT INDEX
  VSB - VISIBILITY





USA.gov is the U.S. government's official web portal to all federal, state and local government web resources and services.